Regional Weather Roundup
Issued by NWS

Home | Current Version | Previous Version | Text Only | Print | Product List | Glossary Off
Versions: 1 2 3 4 5 6 7 8 9 10 11 12 13 14 15 16 17 18 19 20 21 22 23 24 25 26 27 28 29 30 31 32 33 34 35 36 37 38 39 40 41 42 43 44 45 46 47 48 49 50

000
ASUS45 KTFX 041610
RWRMT
MONTANA REGIONAL WEATHER ROUNDUP
NATIONAL WEATHER SERVICE GREAT FALLS MT
900 AM MST SUN DEC 04 2016

NOTE: "FAIR" INDICATES FEW OR NO CLOUDS BELOW 12000 FEET WITH NO
SIGNIFICANT WEATHER AND/OR OBSTRUCTIONS TO VISIBILITY.

MTZ001>007-043-041700-
WEST OF THE DIVIDE

CITY           SKY/WX    TMP DP  RH WIND       PRES   REMARKS
KALISPELL      LGT SNOW  36  30  80 S12       29.64F FOG     WCI  27
MISSOULA       CLOUDY    34  31  88 SE14      29.76F WCI  25
BUTTE          CLOUDY    30  17  58 CALM      29.75F
MULLAN PASS    SNOW      25  23  92 SW9G21    29.61F VSB 1/4 WCI  15
ANACONDA         N/A     32  19  59 S15G26    29.73F WCI  22
DEER LODGE       N/A     34  21  60 S14G20    29.74F WCI  24
EUREKA           N/A     36  28  75 SW6       29.63S WCI  31
HAMILTON         N/A     34  30  86 S9        29.77F WCI  26
LIBBY            N/A     32  32 100 CALM      29.65S
PLAINS           N/A     35  31  86 MISG      29.73F
RONAN            N/A     38  27  65 CALM      29.76F
$$

MTZ008-052>055-041700-
SOUTHWEST MONTANA

CITY           SKY/WX    TMP DP  RH WIND       PRES   REMARKS
BOZEMAN        CLOUDY    34  18  52 CALM      29.77F
DILLON         CLOUDY    26  17  68 S6        29.79F WCI  19
W YELLOWSTONE  LGT SNOW  23  19  86 S3        29.87F VSB 1
ENNIS          MOCLDY    30  19  64 S17G25    29.85F WCI  18
THREE FORKS      N/A     34  34 100 CALM      29.79F
TWIN BRIDGES     N/A     28  15  58 S12       29.81F WCI  18
$$

MTZ009-010-012-014-046-048-049-054-041700-
EAST SLOPES AND CENTRAL MONTANA

CITY           SKY/WX    TMP DP  RH WIND       PRES   REMARKS
CUT BANK       MOCLDY    26  22  84 SW15      29.55F WCI  14
GREAT FALLS    CLOUDY    35  22  58 SW26G33   29.62F WCI  22
MALMSTROM AFB  CLOUDY    35  22  61 S14       29.65F WCI  25
HELENA         CLOUDY    38  21  50 SW12G24   29.72F WCI  30
AUGUSTA        CLOUDY    32  22  66 SW18      29.61F WCI  21
BOWMANS CRNR     N/A     31  24  77 SW23G30   29.63F WCI  17
CHOTEAU          N/A     34  23  64 SW13      29.61S WCI  25
CONRAD           N/A     25  24  96 S6        29.64F WCI  18
FAIRFIELD        N/A     34  21  57 SW15G23   29.61S WCI  24
POWER            N/A     32  22  68 SW16G23   29.61F WCI  21
RAYNESFORD     MOCLDY    37  19  49 SW20G26   29.64F WCI  26
ULM            MOCLDY    37  22  56 W15G26    29.65F WCI  27
$$

MTZ011-013-016-021-045-047-050-051-041700-
NORTH CENTRAL MONTANA

CITY           SKY/WX    TMP DP  RH WIND       PRES   REMARKS
HAVRE          CLOUDY    36  23  59 SW10      29.63F WCI  28
LEWISTOWN      CLOUDY    34  18  52 SW15      29.68F WCI  24
N BAR RANCH    MOCLDY    34  14  44 W9        29.71F WCI  26
CHINOOK          N/A     27  19  74 E6        29.66F WCI  20
DENTON         MOCLDY    29  20  69 SE12      29.63F WCI  19
GEYSER         MOCLDY    33  19  58 W14       29.64F WCI  23
GRASS RANGE      N/A     32  20  61 W8        29.66F WCI  25
JUDITH GAP     MOCLDY    31  15  50 SW10G21   29.69F WCI  23
ROY            MOCLDY    38  18  43 MISG      29.66F
STANFORD       MOCLDY    36  17  45 W24G33    29.63F WCI  24
WINIFRED       MOCLDY    33  19  56 MISG      29.66F
$$

MTZ017>020-022>027-061-062-041700-
NORTHEAST MONTANA

CITY           SKY/WX    TMP DP  RH WIND       PRES   REMARKS
GLASGOW        CLEAR     26  21  81 S9        29.71F WCI  17
JORDAN           N/A     25  19  78 W3        29.74F
SIDNEY         SUNNY     22  19  89 S7        29.77F WCI  13
WOLF POINT     CLEAR     24  21  88 CALM      29.75F
PLENTYWOOD       N/A     16  14  93 W3        29.71F
POPLAR           N/A     25  19  80 CALM      29.76S
SCOBEY           N/A     19   9  65 CALM      29.70F
$$

MTZ028>42-056>058-041700-
SOUTHCENTRAL AND SOUTHEAST MONTANA

CITY           SKY/WX    TMP DP  RH WIND       PRES   REMARKS
BAKER          CLOUDY    19  14  81 CALM      29.78F
BILLINGS       CLOUDY    34  15  46 SW10      29.77F WCI  26
LIVINGSTON     CLOUDY    38  17  42 SW29G43   29.73F WCI  26
MILES CITY     PTSUNNY   29  18  63 S6        29.79F WCI  23
BIG TIMBER     CLEAR     36  16  44 CALM      29.77F
EKALAKA          N/A     31  18  58 SW9       29.79S WCI  23
FORSYTH          N/A     30  18  59 CALM      29.78F
HARLOWTON        N/A     32  16  50 W10       29.71F WCI  24
LAUREL           N/A     34  11  38 SW6       29.77F WCI  29
ROUNDUP          N/A     29  14  53 S6        29.68F WCI  23
$$

REGIONAL REPORTS...DAKOTAS

CITY           SKY/WX    TMP DP  RH WIND       PRES   REMARKS
WILLISTON      SUNNY     21  18  88 SW8       29.75F WCI  11
MINOT          CLOUDY    30  26  85 W14       29.70F WCI  19
DICKINSON      SUNNY     23  16  74 W15       29.74S WCI  10
BEACH            N/A     27  18  69 SW9       29.79F WCI  17
CROSBY           N/A     14  14 100 S8        29.74F WCI   3
TIOGA            N/A     19  19 100 CALM      29.73F
WATFORD CITY     N/A     19  18  93 SW12      29.75F WCI   7
BISMARCK       CLOUDY    32  28  85 W13       29.78R WCI  22
GRAND FORKS    CLOUDY    34  32  92 S8        29.69S WCI  27
FARGO          LGT SNOW  33  31  92 S12       29.72F VSB 1   WCI  24
BUFFALO SD       N/A     30  22  72 W6        29.74F WCI  24
RAPID CITY     SUNNY     37  21  52 W13       29.88S WCI  29
$$

REGIONAL REPORTS...WYOMING/IDAHO/WASHINGTON

CITY           SKY/WX    TMP DP  RH WIND       PRES   REMARKS
GILLETTE       SUNNY     30  14  51 SW17      29.83F WCI  18
SHERIDAN       CLOUDY    32  20  61 SW3       29.80F
BUFFALO WY     CLOUDY    32  14  47 E3        29.80F
CODY           CLOUDY    35  22  58 SW15      29.79F WCI  25
YELLOWSTONE LA   N/A     20  16  84 W8G17     29.85F WCI  10
IDAHO FALLS    CLOUDY    33  23  66 S20G29    29.98F WCI  21
SALMON         CLOUDY    27  21  80 CALM      29.86F
BOISE          CLOUDY    40  34  79 SE13      29.96F
SPOKANE        CLOUDY    37  32  82 SW24G30   29.75R WCI  26
$$

REGIONAL REPORTS...ALBERTA

CITY           SKY/WX    TMP DP  RH WIND       PRES   REMARKS
EDMONTON       CLEAR     18   9  68 W8        29.62R WCI   7
CALGARY        CLOUDY    25  21  86 N14G20    29.59S FOG     WCI  13
LETHBRIDGE     MOCLDY    28  25  86 SW3       29.55F
MEDICINE HAT   MOCLDY    25  21  86 N7        29.57F WCI  17
WATERTON GATE    N/A     30  27  86 SW15G22     N/A  WCI  19
CARDSTON         N/A     30  23  74 SW6         N/A  WCI  24
MILK RIVER       N/A     28  25  86 SW5         N/A
$$

REGIONAL REPORTS...SASKATCHEWAN

CITY           SKY/WX    TMP DP  RH WIND       PRES   REMARKS
SWIFT CURRENT  MOCLDY    19  16  86 SW14      29.58F WCI   6
REGINA         PTCLDY    18  16  93 E7        29.67F WCI   8
SASKATOON      MOCLDY    18  16  93 SW3       29.66F
CYPRESS HILLS    N/A     21  16  79 S6          N/A  WCI  14
ROCKGLEN         N/A     18  16  93 SW9         N/A  WCI   6
ASSINIBOIA       N/A     19  12  73 SW9         N/A  WCI   9
$$



USA.gov is the U.S. government's official web portal to all federal, state and local government web resources and services.